Location: Chakepay
(13.3931°S, 72.1925°W)
Time: 21:30:09
(UTC+00:00)

Cosmos 1707 Rocket - Pass Details

Date: 15 November 2019
Orbit: 606 x 631 km, 82.5° (Epoch: 09 December)

Event Time Altitude Azimuth Distance (km) Brightness Sun altitude
Rises 23:58:46 0° 176° (S) 2,874 7.3 -15.3°
Reaches altitude 10° 00:01:03 10° 171° (S) 1,965 6.3 -15.8°
Maximum altitude 00:05:16 50° 95° (E) 774 3.7 -16.7°
Enters shadow 00:07:12 28° 34° (NE) 1,136 4.4 -17.2°
